sat.trackr.live / text

‹ back to catalog

IRIDIUM 169

NORAD 43926 · 2019-002E

PAYLOAD ACTIVE UNKNOWN

§ Identity

Operator
Country
US
Launch date
2019-01-11
Launch site
AFWTR
Launch vehicle
Mass (kg)
RCS (m²)

Purposes: comms

External: N2YO · Heavens-Above · Gunter

§ Orbital elements

Epoch: 2026-09-20T04:42:03.316608Z

Period
100.10 min
Inclination
86.4279°
Eccentricity
0.0002236
Mean motion
14.38607007 rev/d
Perigee alt
761.5 km
Apogee alt
764.7 km
Semi-major
7,141.2 km
B*
4.8110e-5
RAAN
345.4949°
Arg perigee
84.8019°
Mean anomaly
275.3435°
Rev number
40,388

§ Raw data

IRIDIUM 1691 43926U 19002E   26263.19587172  .00000167  00000+0  48110-4 0  99962 43926  86.4279 345.4949 0002236  84.8019 275.3435 14.38607007403881

JSON: /api/v1/satellites/43926 · /tle

For live sub-satellite position, see the globe view (requires WebGL).

§ Visibility from observer

Set your observer location to see the next 7 days of passes ≥ 10°. The values pass through the URL so the page stays shareable.

No JS? Fill the form by hand. The geolocation button needs JavaScript.